Погода Советская Гавань

Погода Советская Гавань : погода сейчас, прогноз погоды и архив. Всё, что Вы хотите узнать о погоде Советская Гавань!

Поиск расширенной информации на нашем сайте:

Другие новости

Новости СМИ2

Главная страница сайта

Новости сайта

03.07.2017

Напоминаем, что на нашем специализированном сайте Метеоцентр.Азия вы можете получить высокодетализированные автоматические прогнозы погоды по пунктам России, СНГ и мира в авиационном формате (включающие направление и скорость ветра, видимость, явления погоды, количество и форму облачности, нижнюю и верхнюю границу облачности).


Погода Советская Гавань - сегодня

Время (UTC), дата Ветер
(°,м/с) 
Видим.   Явления Облачность Т
(°С)
Тd
(°С)
f(%) Тe
(°С)
Pmin
(гПа)
dP
(гПа)
Po
(мм)
O2
(г/м3)
Тmin Tmax R s Состояние
почвы
03 19.11.17 320 (СЗ) 6-10{10}  20000 м    ясно 
-11.2 -19.6 50 -17  1008.8  -1  755  319           
06 19.11.17 320 (СЗ) 6-10{12}  20000 м    3/0 средняя 
[Ac trans]
-10.6 -19.1 50 -16  1007.9  -0.8  754  318           
09 19.11.17 270 (З) 6-12{12}  50000 м    10/8 600 м средняя 
[Sc|Ac As]
-12.1 -19 56 -18  1009.2    755  320    -10.3       
12 19.11.17 270 (З) 45000 м    10/8 600 м средняя 
[Sc|Ac As]
-14.2 -21.5 54 -19  1010.3  1.1  756  323           
15 19.11.17 270 (З) 50000 м    ясно 
-14.7 -22 54 -19  1010.4  0.1  756  323           
18 19.11.17 270 (З) 30000 м    6/3 600 м верхняя 
[Sc|Ci fib]
-15.6 -22.7 54 -20  1010.8  0.4  756  325           
21 19.11.17 270 (З) 29000 м    3/3 600 м 
[Sc]
-16.4 -22.5 59 -21  1011  0.2  756  326  -16.6         
00 20.11.17 230 (ЮЗ) 20000 м    3/0 средняя, верхняя 
[Ac trans|Ci fib]
-18.6 -25.2 56 -21  1010.3  -0.7  756  328  -19.9         
03 20.11.17 320 (СЗ) 20000 м    10/0 средняя, верхняя 
[Ac trans|Cc]
-12.1 -21.7 45 -16  1007.8  -2.4  754  319           
06 20.11.17 290 (З) 20000 м    10/0 средняя, верхняя 
[Ac trans|Ci fib]
-11.4 -24.5 33 -13  1007.3  -0.5  753  318           
09 20.11.17 320 (СЗ) 6-10{14}  н/о    10/0 средняя, верхняя 
[Ac trans|Ci fib]
-14 -22.6 48 -20  1009.4  2.1  755  322           
12 20.11.17 290 (З) 22000 м    10/8 600 м средняя 
[Sc|Ac As]
-14.1 -21.6 53 -20  1010.2  0.8  756  323           
15 20.11.17 230 (ЮЗ) 2{14}  26000 м    10/0 средняя, верхняя 
[Ac trans|Ci fib]
-15.8 -23.8 50 -18  1011.2  756  325           
18 20.11.17 230 (ЮЗ) 14000 м    10/0 средняя, верхняя 
[Ac und|Ci fib]
-19.9 -22.4 80 -23  1012.7  1.5  757  331           
21 20.11.17 180 (Ю) 10 км    10/0 средняя, верхняя 
[Ac lent|Ci fib]
-23 -27.3 68 -26  1015.2  2.4  759  336  -23.3      20  равномерный
сухой снег
100% 
00 21.11.17 230 (ЮЗ) 1000 м  туман местами  ясно 
-20.5 -26.4 59 -23  1016.3  1.1  760  333  -23.7         
03 21.11.17 230 (ЮЗ) 20000 м    1/1 600 м 
[Cu hum]
-10.3 -23.1 34 -12  1015.2  -0.9  759  320           
06 21.11.17 180 (Ю) 20000 м    3/1 600 м средняя 
[Cu hum|Ac lent]
-7.2 -20.8 33 -9  1015.4  0.2  760  316           
09 21.11.17 270 (З) 50000 м    10/0 верхняя 
[Ci fib]
-10.8 -16.7 62 -13  1016.1  0.6  760  320    -7       
12 21.11.17 230 (ЮЗ) 50000 м    10/0 верхняя 
[Ci fib]
-14.7 -19.9 65 -19  1016.2  0.1  760  325           
15 21.11.17 230 (ЮЗ) 40000 м    10/10 600 м 
[Sc]
-13.5 -18.7 65 -18  1015.3  -0.9  759  323           
18 21.11.17 тихо ()   40000 м    10/10 600 м 
[Sc]
-12.2 -15.8 75 -12  1014.2  -1.1  759  321           
21 21.11.17 тихо ()   18000 м  слаб. ливневой снег  10/10 600 м кучево-дожд. 
[Cb cap]
-11.8 -16.6 67 -12  1011.8  -2.4  757  320  -14.9    0.0  21  равномерный
сухой снег
100% 
00 22.11.17 230 (ЮЗ) 20000 м  {ливн. осадки}  10/8 600 м кучево-дожд., средняя, верхняя 
[Cb cap|Ac trans|Ci fib]
-10.4 -15.1 68 -12  1009.2  -2.6  755  317           
03 22.11.17 тихо ()   20000 м    10/5 600 м кучево-дожд., средняя, верхняя 
[Cb cap|Ac trans|Ci fib]
-5 -11.2 62 -5  1004.9  -4.2  752  310           
Время (UTC), дата Ветер
(°,м/с) 
Видим.   Явления Облачность Т
(°С)
Тd
(°С)
f(%) Тe
(°С)
Pmin
(гПа)
dP
(гПа)
Po
(мм)
O2
(г/м3)
Тmin Tmax R s Состояние
почвы

Для получения пояснительной информации подведите курсор к названию столбца.

ПОГОДА Советская Гавань - архив

Всё, что Вы хотите узнать о погоде Советская Гавань - удобно и подробно!

Выберите нужную дату (начиная с 1 января 2015* года) и нажмите кнопку "Найти".
Будут отображены архивные сводки погоды по пункту Советская Гавань, начиная с указанной даты.


Отображать данные в формате CSV (для использования в таблицах Excel)


Внимание! Наш архив погоды предназначен исключительно для личного некоммерческого использования в познавательных целях. Если Вам необходимы официальные справки о состоянии погоды (для производственных, юридических, коммерческих и т.п. целей), обращайтесь в органы Росгидромета.

*Примечание: данная дата относится к архиву по метеостанциям СССР (Россия, СНГ, Балтия).
Архив по метеостанциям Зарубежной Европы и Азии (кроме Китая) хранится 10 дней, по другим регионам земного шара (Китай, Африка, Америка, Австралия, Океания) - 1 день.

Советская Гавань - район местоположения метеостанции


Название, широта, долгота, высота метеостанции:
Советская Гавань 49°ш. 140.3°д. 22 м над ур. моря [Российская Федерация]

Дополнительная информация

В oтличие oт бoльшинства пoгoдных сайтoв мы публикуем пoдрoбную метеoинфoрмацию в детальнoм прoфессиoнальнoм фoрмате.

Характеристики температуры и влажнoсти вoздуха измеряются на высoте 2 м в тени вдали oт зданий и деревьев.
Скoрoсть ветра измеряется на высoте 10 м (на урoвне рoста челoвека скoрoсть ветра ниже в 1.5-2 раза). Если метеoстанция нахoдится в гoрoде или в лесу, тo скoрoсть ветра занижена на 2-4 м/с пo сравнению с oткрытым местoм. Скoрoсть ветра над акватoриями крупных рек и oзёр, а также на вершинах хoлмoв на 2-5 м/с выше, чем в oбычных услoвиях.
Атмoсфернoе давление в разных тoчках местнoсти мoжет значительнo oтличаться oт давления на метеoстанции, в зависимoсти oт услoвий рельефа (при пoдъёме на 10 м давление пoнижается примернo на 1 мм рт.ст.).